Weather History for Cold Bay, AK

Change the Weather History Date:

Sunday, February 2, 2014

  Actual Average Record
Temperature  
Mean Temperature 34 °F 28 °F  
Max Temperature 37 °F 33 °F 45 °F (1996)
Min Temperature 30 °F 24 °F -4 °F (2006)
Degree Days  
Heating Degree Days 31 37  
Month to date heating degree days 62 74  
Since 1 July heating degree days 4251 5290  
Cooling Degree Days 0    
Month to date cooling degree days 0  
Year to date cooling degree days 0  
Moisture  
Dew Point 29 °F    
Average Humidity 84    
Maximum Humidity 93    
Minimum Humidity 66    
Precipitation  
Precipitation 0.02 in 0.11 in 2.09 in (1975)
Month to date precipitation 0.04 0.22  
Year to date precipitation 4.37 3.38  
Snow  
Snow 0.20 in 0.40 in 5.20 in (2000)
Month to date snowfall 0.4 0.9  
Since 1 July snowfall 16.3 40.2  
Snow Depth T in    
Sea Level Pressure  
Sea Level Pressure 30.32 in    
Wind  
Wind Speed 10 mph (NNW)    
Max Wind Speed 18 mph    
Max Gust Speed 22 mph    
Visibility 8 miles    
Events Snow    
T = Trace of Precipitation, MM = Missing Value Source: NWS Daily Summary

Daily Weather History Graph

Daily Weather History Graph

Search for Another Location

Airport:

Trip Planner

Search our weather history database for the weather conditions in past years. The results will help you decide how hot, cold, wet, or windy it might be!

Date:

Astronomy

Feb. 02, 2014 Rise Set
Actual Time 9:40 AM AKST 6:29 PM AKST
Civil Twilight 9:00 AM AKST 7:09 PM AKST
Nautical Twilight 8:16 AM AKST 7:53 PM AKST
Astronomical Twilight 7:33 AM AKST 8:36 PM AKST
Moon 10:31 AM AKST (2/2) 11:16 PM AKST (2/2)
Length of Visible Light 10h 09m
Length of Day
8h 49m
Waxing Crescent, 12% of the Moon is Illuminated
Feb 2
Waxing Crescent
Feb 6
First Quarter
Feb 14
Full
Feb 22
Last Quarter
Feb 28
New

Hourly Weather History & Observations

Time (AKST) Temp. Windchill Dew Point Humidity Pressure Visibility Wind Dir Wind Speed Gust Speed Precip Events Conditions
12:53 AM 30.9 °F 22.8 °F 24.1 °F 76% 30.52 in 10.0 mi North 9.2 mph - N/A   Mostly Cloudy
1:43 AM 32.0 °F 23.0 °F 24.8 °F 75% 30.50 in 10.0 mi North 11.5 mph - N/A   Overcast
1:53 AM 32.0 °F 24.2 °F 23.0 °F 69% 30.51 in 10.0 mi North 9.2 mph - N/A   Overcast
2:53 AM 32.0 °F 24.8 °F 25.0 °F 75% 30.49 in 10.0 mi North 8.1 mph - N/A   Overcast
3:53 AM 33.1 °F 25.5 °F 26.1 °F 75% 30.46 in 10.0 mi NW 9.2 mph - N/A   Overcast
4:15 AM 33.8 °F 25.8 °F 26.6 °F 75% 30.45 in 10.0 mi NW 10.4 mph - N/A   Overcast
4:33 AM 33.8 °F 25.8 °F 26.6 °F 75% 30.44 in 10.0 mi NW 10.4 mph - N/A   Overcast
4:53 AM 33.1 °F 24.4 °F 28.0 °F 82% 30.44 in 10.0 mi NNW 11.5 mph - N/A   Overcast
5:53 AM 33.1 °F 25.5 °F 28.9 °F 85% 30.42 in 9.0 mi NNW 9.2 mph - N/A   Overcast
6:23 AM 33.8 °F 27.0 °F 30.2 °F 87% 30.40 in 5.0 mi North 8.1 mph - 0.00 in Snow Light Snow
6:36 AM 33.8 °F 25.8 °F 30.2 °F 87% 30.40 in 5.0 mi North 10.4 mph - 0.01 in Snow Light Snow
6:53 AM 33.1 °F 25.5 °F 28.9 °F 85% 30.40 in 10.0 mi North 9.2 mph - 0.01 in   Mostly Cloudy
7:16 AM 33.8 °F 26.4 °F 30.2 °F 87% 30.39 in 10.0 mi North 9.2 mph - 0.00 in   Overcast
7:34 AM 33.8 °F 25.3 °F 30.2 °F 87% 30.39 in 2.5 mi North 11.5 mph - 0.01 in Snow Light Snow
7:53 AM 33.1 °F 26.9 °F 30.0 °F 89% 30.39 in 4.0 mi North 6.9 mph - 0.01 in Snow Light Snow
8:06 AM 32.0 °F 25.6 °F 30.2 °F 93% 30.38 in 7.0 mi North 6.9 mph - 0.00 in Snow Light Snow
8:38 AM 32.0 °F 24.2 °F 28.4 °F 87% 30.37 in 4.0 mi North 9.2 mph - 0.00 in Snow Light Snow
8:53 AM 30.9 °F 23.5 °F 28.0 °F 89% 30.38 in 10.0 mi North 8.1 mph - 0.00 in   Mostly Cloudy
9:53 AM 30.9 °F 23.5 °F 28.0 °F 89% 30.38 in 10.0 mi North 8.1 mph - 0.00 in   Mostly Cloudy
10:53 AM 30.9 °F 22.8 °F 28.0 °F 89% 30.35 in 10.0 mi NNW 9.2 mph - 0.00 in   Mostly Cloudy
11:01 AM 30.2 °F 26.7 °F 28.4 °F 93% 30.34 in 10.0 mi NW 3.5 mph - N/A   Mostly Cloudy
11:53 AM 33.1 °F 28.7 °F 30.0 °F 89% 30.34 in 10.0 mi West 4.6 mph - N/A   Mostly Cloudy
12:00 PM 33.8 °F 28.6 °F 30.2 °F 87% 30.34 in 10.0 mi West 5.8 mph - N/A   Overcast
12:31 PM 33.8 °F 28.6 °F 30.2 °F 87% 30.32 in 3.0 mi West 5.8 mph - 0.00 in Snow Light Snow
12:42 PM 33.8 °F 27.7 °F 30.2 °F 87% 30.31 in 2.5 mi WNW 6.9 mph - 0.00 in Snow Light Snow
12:49 PM 33.8 °F 27.7 °F 30.2 °F 87% 30.31 in 4.0 mi NW 6.9 mph - 0.00 in Snow Light Snow
12:53 PM 34.0 °F 27.2 °F 30.9 °F 89% 30.32 in 4.0 mi NNW 8.1 mph - 0.00 in Snow Light Snow
1:00 PM 33.8 °F 27.7 °F 30.2 °F 87% 30.31 in 2.5 mi NNW 6.9 mph - 0.00 in Snow Light Snow
1:19 PM 35.6 °F 30.7 °F 32.0 °F 87% 30.29 in 3.0 mi NW 5.8 mph - 0.00 in Snow Light Snow
1:53 PM 36.0 °F 28.5 °F 33.1 °F 89% 30.28 in 10.0 mi NW 10.4 mph - 0.00 in   Mostly Cloudy
2:00 PM 35.6 °F 27.5 °F 33.8 °F 93% 30.26 in 10.0 mi NW 11.5 mph - N/A   Mostly Cloudy
2:08 PM 35.6 °F 29.2 °F 33.8 °F 93% 30.26 in 10.0 mi NW 8.1 mph - N/A   Mostly Cloudy
2:53 PM 37.0 °F 28.9 °F 32.0 °F 82% 30.23 in 10.0 mi North 12.7 mph - N/A   Mostly Cloudy
3:00 PM 37.4 °F 29.3 °F 30.2 °F 75% 30.23 in 10.0 mi North 12.7 mph - N/A   Mostly Cloudy
3:53 PM 36.0 °F 26.0 °F 30.0 °F 79% 30.19 in 10.0 mi North 17.3 mph - N/A   Scattered Clouds
4:53 PM 35.1 °F 25.2 °F 30.0 °F 82% 30.18 in 10.0 mi North 16.1 mph - N/A   Overcast
5:53 PM 34.0 °F 26.0 °F 30.0 °F 85% 30.17 in 10.0 mi North 10.4 mph - N/A   Scattered Clouds
6:53 PM 34.0 °F 24.6 °F 30.0 °F 85% 30.14 in 10.0 mi North 13.8 mph - N/A   Clear
7:53 PM 33.1 °F 25.5 °F 30.0 °F 89% 30.12 in 10.0 mi North 9.2 mph - N/A   Clear
8:53 PM 33.1 °F 24.4 °F 30.0 °F 89% 30.10 in 10.0 mi North 11.5 mph - N/A   Clear
9:53 PM 33.1 °F 24.4 °F 28.0 °F 82% 30.09 in 10.0 mi NNE 11.5 mph - N/A   Clear
10:53 PM 30.9 °F 22.8 °F 27.0 °F 85% 30.07 in 10.0 mi NNE 9.2 mph - N/A   Partly Cloudy
11:53 PM 32.0 °F 23.6 °F 28.0 °F 85% 30.06 in 10.0 mi NNE 10.4 mph - N/A   Overcast